This is the latest recevied weather packets stored in our database for station/object OE3PDB-4. If no packets are shown the sender has not sent any weather packets the latest 10 day(s).
| Time | Temp. | Humidity | Pressure | Rain* | Wind** | Luminosity | Snow |
|---|---|---|---|---|---|---|---|
| 1777530612 | 7.78° C | 42% | 1029.8 hPa | 0 mm | - | - | - |
| 1777530012 | 7.22° C | 43% | 1029.8 hPa | 0 mm | - | - | - |
| 1777529411 | 7.22° C | 44% | 1029.7 hPa | 0 mm | - | - | - |
| 1777528812 | 6.67° C | 44% | 1029.7 hPa | 0 mm | - | - | - |
| 1777528212 | 6.11° C | 45% | 1029.7 hPa | 0 mm | - | - | - |
| 1777527612 | 6.11° C | 46% | 1029.7 hPa | 0 mm | - | - | - |
| 1777527012 | 6.11° C | 46% | 1029.8 hPa | 0 mm | - | - | - |
| 1777526412 | 5.56° C | 47% | 1029.8 hPa | 0 mm | - | - | - |
| 1777525812 | 5° C | 48% | 1029.8 hPa | 0 mm | - | - | - |
| 1777525212 | 5° C | 48% | 1029.7 hPa | 0 mm | - | - | - |
| 1777524612 | 4.44° C | 49% | 1029.7 hPa | 0 mm | - | - | - |
| 1777524012 | 3.89° C | 49% | 1029.6 hPa | 0 mm | - | - | - |
| 1777523412 | 3.89° C | 49% | 1029.6 hPa | 0 mm | - | - | - |
| 1777522812 | 3.89° C | 49% | 1029.4 hPa | 0 mm | - | - | - |
| 1777522212 | 3.89° C | 49% | 1029.5 hPa | 0 mm | - | - | - |
| 1777521612 | 3.89° C | 49% | 1029.3 hPa | 0 mm | - | - | - |
| 1777521012 | 3.33° C | 49% | 1029.4 hPa | 0 mm | - | - | - |
| 1777520412 | 3.33° C | 49% | 1029.2 hPa | 0 mm | - | - | - |
| 1777519812 | 3.33° C | 49% | 1029.1 hPa | 0 mm | - | - | - |
| 1777519212 | 3.33° C | 48% | 1028.9 hPa | 0 mm | - | - | - |
| 1777518612 | 3.33° C | 48% | 1029 hPa | 0 mm | - | - | - |
| 1777518012 | 3.33° C | 47% | 1028.9 hPa | 0 mm | - | - | - |
| 1777517412 | 3.33° C | 47% | 1028.9 hPa | 0 mm | - | - | - |
| 1777516812 | 3.89° C | 47% | 1028.7 hPa | 0 mm | - | - | - |
| 1777516212 | 3.89° C | 47% | 1028.8 hPa | 0 mm | - | - | - |
* Rain latest hour (hover to see other rain measurements)
** Current wind speed in m/s (hover to see current wind gust speed)